Weather History for Mount Carmel, IL

Change the Weather History Date:

Tuesday, December 17, 2013

  Actual Average (KLWV) Record (KLWV)
Temperature  
Mean Temperature 29 °F 34 °F  
Max Temperature 32 °F 41 °F 64 °F (2006)
Min Temperature 26 °F 26 °F 0 °F (2000)
Degree Days  
Heating Degree Days 36 31  
Month to date heating degree days 484  
Since 1 July heating degree days 1342  
Cooling Degree Days 0 0  
Month to date cooling degree days 0  
Year to date cooling degree days 1387  
Moisture  
Dew Point 25 °F    
Average Humidity 87    
Maximum Humidity 93    
Minimum Humidity 69    
Precipitation  
Precipitation 0.00 in 0.08 in 1.15 in (2001)
Month to date precipitation 1.81  
Year to date precipitation 42.30  
Sea Level Pressure  
Sea Level Pressure 30.16 in    
Wind  
Wind Speed 9 mph (West)    
Max Wind Speed 15 mph    
Max Gust Speed 17 mph    
Visibility 6 miles    
Events      
T = Trace of Precipitation, MM = Missing Value Source: NWS Daily Summary

Daily Weather History Graph

Daily Weather History Graph

Search for Another Location

Airport:

Trip Planner

Search our weather history database for the weather conditions in past years. The results will help you decide how hot, cold, wet, or windy it might be!

Date:

Astronomy

Dec. 17, 2013 Rise Set
Actual Time 7:02 AM CST 4:31 PM CST
Civil Twilight 6:33 AM CST 5:01 PM CST
Nautical Twilight 5:59 AM CST 5:34 PM CST
Astronomical Twilight 5:27 AM CST 6:06 PM CST
Moon 5:10 PM CST (12/17) 6:59 AM CST (12/17)
Length of Visible Light 10h 28m
Length of Day
9h 28m
Full, 100% of the Moon is Illuminated
Dec 17
Full
Dec 25
Last Quarter
Jan 1
New
Jan 7
First Quarter
Jan 15
Full

Hourly Weather History & Observations

Time (CST) Temp. Windchill Dew Point Humidity Pressure Visibility Wind Dir Wind Speed Gust Speed Precip Events Conditions
12:15 AM 30.2 °F 21.9 °F 28.4 °F 93% 30.07 in 2.5 mi NW 9.2 mph - N/A   Overcast
12:35 AM 30.2 °F 19.8 °F 28.4 °F 93% 30.08 in 2.5 mi NW 13.8 mph 17.3 mph N/A   Overcast
12:55 AM 28.4 °F 19.7 °F 26.6 °F 93% 30.08 in 4.0 mi NNW 9.2 mph 12.7 mph N/A   Overcast
1:15 AM 28.4 °F 18.5 °F 26.6 °F 93% 30.10 in 5.0 mi NNW 11.5 mph - N/A   Overcast
1:35 AM 28.4 °F 20.4 °F 26.6 °F 93% 30.10 in 5.0 mi NNW 8.1 mph - N/A   Overcast
1:55 AM 26.6 °F 17.5 °F 24.8 °F 93% 30.11 in 5.0 mi NNW 9.2 mph - N/A   Overcast
2:15 AM 26.6 °F 16.8 °F 24.8 °F 93% 30.11 in 7.0 mi North 10.4 mph - N/A   Overcast
2:35 AM 26.6 °F 16.8 °F 24.8 °F 93% 30.12 in 7.0 mi NNW 10.4 mph - N/A   Overcast
2:55 AM 26.6 °F 16.2 °F 23.0 °F 86% 30.12 in 7.0 mi NNW 11.5 mph - N/A   Overcast
3:15 AM 26.6 °F 17.5 °F 23.0 °F 86% 30.12 in 7.0 mi NW 9.2 mph - N/A   Overcast
3:35 AM 26.6 °F 17.5 °F 23.0 °F 86% 30.12 in 5.0 mi NNW 9.2 mph - N/A   Overcast
3:55 AM 26.6 °F 15.2 °F 23.0 °F 86% 30.15 in 5.0 mi NW 13.8 mph - N/A   Overcast
4:15 AM 26.6 °F 17.5 °F 23.0 °F 86% 30.13 in 5.0 mi NW 9.2 mph - N/A   Overcast
4:35 AM 26.6 °F - 23.0 °F 86% 30.12 in 5.0 mi Calm Calm - N/A   Overcast
4:55 AM 26.6 °F - 23.0 °F 86% 30.12 in 5.0 mi Calm Calm - N/A   Overcast
5:15 AM 26.6 °F - 23.0 °F 86% 30.13 in 5.0 mi Calm Calm - N/A   Overcast
5:35 AM 26.6 °F - 23.0 °F 86% 30.13 in 5.0 mi Calm Calm - N/A   Overcast
5:55 AM 26.6 °F 18.2 °F 23.0 °F 86% 30.14 in 5.0 mi NW 8.1 mph - N/A   Overcast
6:15 AM 26.6 °F - 23.0 °F 86% 30.14 in 5.0 mi Calm Calm - N/A   Overcast
6:35 AM 26.6 °F 19.1 °F 23.0 °F 86% 30.15 in 5.0 mi WNW 6.9 mph - N/A   Overcast
6:55 AM 26.6 °F 20.0 °F 23.0 °F 86% 30.15 in 7.0 mi West 5.8 mph - N/A   Overcast
7:15 AM 26.6 °F 19.1 °F 23.0 °F 86% 30.16 in 5.0 mi WNW 6.9 mph - N/A   Overcast
7:35 AM 26.6 °F 21.2 °F 23.0 °F 86% 30.15 in 4.0 mi NW 4.6 mph - N/A   Overcast
7:55 AM 26.6 °F 20.0 °F 23.0 °F 86% 30.16 in 4.0 mi West 5.8 mph - N/A   Overcast
8:15 AM 26.6 °F 19.1 °F 23.0 °F 86% 30.15 in 4.0 mi West 6.9 mph - N/A   Overcast
8:40 AM 26.6 °F 19.1 °F 23.0 °F 86% 30.16 in 5.0 mi West 6.9 mph - N/A   Overcast
8:55 AM 26.6 °F 21.2 °F 23.0 °F 86% 30.15 in 5.0 mi West 4.6 mph - N/A   Mostly Cloudy
9:15 AM 26.6 °F 18.2 °F 23.0 °F 86% 30.17 in 5.0 mi WNW 8.1 mph - N/A   Overcast
9:35 AM 26.6 °F 17.5 °F 23.0 °F 86% 30.17 in 5.0 mi NNW 9.2 mph - N/A   Overcast
9:55 AM 26.6 °F 19.1 °F 23.0 °F 86% 30.17 in 5.0 mi West 6.9 mph - N/A   Overcast
10:15 AM 26.6 °F 17.5 °F 23.0 °F 86% 30.17 in 5.0 mi WNW 9.2 mph - N/A   Overcast
10:35 AM 26.6 °F 18.2 °F 23.0 °F 86% 30.17 in 4.0 mi West 8.1 mph - N/A   Overcast
10:55 AM 28.4 °F 21.2 °F 24.8 °F 86% 30.17 in 5.0 mi West 6.9 mph - N/A   Overcast
11:15 AM 28.4 °F 19.7 °F 24.8 °F 86% 30.16 in 4.0 mi West 9.2 mph - N/A   Overcast
11:35 AM 28.4 °F 19.7 °F 26.6 °F 93% 30.16 in 4.0 mi West 9.2 mph - N/A   Overcast
11:55 AM 28.4 °F 19.1 °F 26.6 °F 93% 30.14 in 5.0 mi West 10.4 mph - N/A   Overcast
12:15 PM 28.4 °F 19.7 °F 26.6 °F 93% 30.13 in 5.0 mi West 9.2 mph - N/A   Overcast
12:35 PM 30.2 °F 21.9 °F 26.6 °F 86% 30.14 in 5.0 mi West 9.2 mph - N/A   Overcast
12:55 PM 30.2 °F 20.8 °F 26.6 °F 86% 30.14 in 5.0 mi West 11.5 mph - N/A   Mostly Cloudy
1:15 PM 32.0 °F 24.2 °F 26.6 °F 80% 30.14 in 5.0 mi West 9.2 mph - N/A   Haze
1:35 PM 32.0 °F 24.2 °F 28.4 °F 87% 30.14 in 5.0 mi West 9.2 mph - N/A   Haze
1:55 PM 32.0 °F 23.0 °F 28.4 °F 87% 30.15 in 7.0 mi West 11.5 mph - N/A   Scattered Clouds
2:15 PM 32.0 °F 21.6 °F 28.4 °F 87% 30.15 in 7.0 mi West 15.0 mph - N/A   Scattered Clouds
2:35 PM 32.0 °F 22.5 °F 28.4 °F 87% 30.15 in 7.0 mi West 12.7 mph - N/A   Mostly Cloudy
2:55 PM 32.0 °F 22.5 °F 28.4 °F 87% 30.16 in 7.0 mi West 12.7 mph 17.3 mph N/A   Mostly Cloudy
3:15 PM 32.0 °F 23.6 °F 28.4 °F 87% 30.14 in 7.0 mi West 10.4 mph - N/A   Mostly Cloudy
3:35 PM 32.0 °F 23.6 °F 30.2 °F 93% 30.15 in 5.0 mi West 10.4 mph - N/A   Mostly Cloudy
3:55 PM 32.0 °F 26.4 °F 28.4 °F 87% 30.16 in 5.0 mi West 5.8 mph - N/A   Scattered Clouds
4:15 PM 32.0 °F 23.6 °F 28.4 °F 87% 30.16 in 7.0 mi West 10.4 mph - N/A   Clear
4:35 PM 32.0 °F 24.8 °F 28.4 °F 87% 30.16 in 7.0 mi West 8.1 mph - N/A   Clear
4:55 PM 30.2 °F 23.4 °F 28.4 °F 93% 30.17 in 7.0 mi WSW 6.9 mph - N/A   Clear
5:15 PM 30.2 °F 22.6 °F 26.6 °F 86% 30.17 in 7.0 mi WSW 8.1 mph - N/A   Clear
5:35 PM 28.4 °F 19.7 °F 26.6 °F 93% 30.18 in 7.0 mi WSW 9.2 mph - N/A   Clear
5:55 PM 28.4 °F 20.4 °F 26.6 °F 93% 30.19 in 7.0 mi West 8.1 mph - N/A   Clear
6:15 PM 28.4 °F 20.4 °F 26.6 °F 93% 30.19 in 7.0 mi WSW 8.1 mph - N/A   Clear
6:35 PM 28.4 °F 19.1 °F 26.6 °F 93% 30.20 in 7.0 mi WSW 10.4 mph - N/A   Clear
6:55 PM 28.4 °F 19.7 °F 26.6 °F 93% 30.21 in 7.0 mi West 9.2 mph - N/A   Clear
7:15 PM 28.4 °F 19.1 °F 26.6 °F 93% 30.21 in 7.0 mi West 10.4 mph - N/A   Clear
7:35 PM 30.2 °F 21.3 °F 26.6 °F 86% 30.22 in 10.0 mi West 10.4 mph - N/A   Clear
7:55 PM 28.4 °F 19.1 °F 26.6 °F 93% 30.22 in 10.0 mi West 10.4 mph - N/A   Clear
8:20 PM 28.4 °F 19.1 °F 26.6 °F 93% 30.22 in 10.0 mi West 10.4 mph - N/A   Clear
8:35 PM 28.4 °F 19.7 °F 24.8 °F 86% 30.22 in 10.0 mi WSW 9.2 mph - N/A   Clear
8:55 PM 28.4 °F 20.4 °F 24.8 °F 86% 30.22 in 10.0 mi WSW 8.1 mph - N/A   Clear
9:15 PM 28.4 °F 19.7 °F 23.0 °F 80% 30.22 in 10.0 mi WSW 9.2 mph - N/A   Clear
9:35 PM 28.4 °F 19.7 °F 23.0 °F 80% 30.22 in 10.0 mi WSW 9.2 mph - N/A   Clear
9:55 PM 28.4 °F 19.7 °F 23.0 °F 80% 30.22 in 10.0 mi WSW 9.2 mph - N/A   Clear
10:15 PM 28.4 °F 19.7 °F 23.0 °F 80% 30.23 in 10.0 mi West 9.2 mph - N/A   Clear
10:35 PM 26.6 °F 17.5 °F 23.0 °F 86% 30.23 in 10.0 mi WSW 9.2 mph - N/A   Clear
10:55 PM 26.6 °F 17.5 °F 23.0 °F 86% 30.23 in 10.0 mi West 9.2 mph - N/A   Clear
11:15 PM 28.4 °F 19.1 °F 23.0 °F 80% 30.24 in 10.0 mi West 10.4 mph - N/A   Clear
11:35 PM 30.2 °F 20.2 °F 24.8 °F 80% 30.25 in 10.0 mi West 12.7 mph - N/A   Clear
11:55 PM 32.0 °F 22.5 °F 23.0 °F 69% 30.25 in 10.0 mi WNW 12.7 mph - N/A   Clear